Simultaneous Nadir Overpasses (SNOs) Predictions

Prediction of SNOs between AQUA and METOP-B Satellite Orbit:

Table of predicted SNOs for the next 14.0 days since TLE Epoch: 4/12/2013
Index Date (AQUA) Time (AQUA) Lat,Lon (AQUA) SZA (AQUA ) Date (METOP-B) Time (METOP-B) Lat,Lon (METOP-B) SZA (METOP-B ) Distance(km) Time Diff (sec)
1 04/13/2013 20:22:19 -73.74, 48.92 115.61 04/13/2013 20:21:28 -73.74, 49.02 115.60 2.98 51
2 04/13/2013 21:11:48 73.81,-143.60 64.46 04/13/2013 21:12:06 73.79,-143.52 64.44 2.92 18
3 04/16/2013 15:56:34 -73.71, 115.42 116.64 04/16/2013 15:55:50 -73.72, 115.38 116.63 1.39 44
4 04/16/2013 16:46:03 73.79, -77.11 63.43 04/16/2013 16:46:28 73.77, -77.16 63.41 2.42 25
5 04/19/2013 11:30:48 -73.74,-178.19 117.60 04/19/2013 11:30:10 -73.74,-178.15 117.59 1.51 38
6 04/19/2013 12:20:17 73.82, -10.74 62.48 04/19/2013 12:20:48 73.79, -10.69 62.45 3.29 31
7 04/22/2013 07:05:02 -73.76,-111.80 118.54 04/22/2013 07:04:31 -73.76,-111.70 118.54 3.06 31
8 04/22/2013 07:54:30 73.80, 55.76 61.49 04/22/2013 07:55:09 73.81, 55.75 61.50 1.14 39
9 04/25/2013 02:39:14 -73.73, -45.28 119.50 04/25/2013 02:38:53 -73.71, -45.38 119.51 3.72 21
10 04/25/2013 03:28:43 73.82, 122.16 60.59 04/25/2013 03:29:30 73.81, 122.19 60.57 1.52 47




NCC Satellite Simultaneous Nadir Overpasses (SNOs) Prediction Service
